SCP
0 0 0 0 0 0 0 0 0 0 0 0 0 0 0 0 0 0 0 0 0 0 0 0 0 0 0 0 0 0 0 0 0 0 0 0 0 0 0 0 0 0 0
0 0 0 0 0 0 0 0 0 0 0 0 0 0 0 0 0 0 0 0 0 0 0 0 0 0 0 0 0 0 0 0 0 0 0 0 0 0 0 0 0 0 0
0 0 0 0 0 0 0 0 0 0 0 0 0 0 0 0 0 0 0 0 0 0 0 0 0 0 0 0 0 0 0 0 0 0 0 0 0 0 0 0 0 0 0
0 0 0 0 0 0 0 0 0 0 0 0 0 0 0 0 0 0 0 0 0 0 0 0 0 0 0 0 0 0 0 0 0 0 0 0 0 0 0 0 0 0 0
0 0 0 0 0 0 0 0 0 0 0 0 0 0 0 0 0 0 0 0 0 0 0 0 0 0 0 0 0 0 0 0 0 0 0 0 0 0 0 0 0 0 0
0 0 0 0 0 0 0 0 0 0 0 0 0 0 0 0 0 0 0 0 0 0 0 0 0 0 0 0 0 0 0 0 0 0 0 0 0 0 0 0 0 0 0
1 0 0 0 0 0 0 0 0 0 0 0 0 0 0 0 0 0 0 0 0 0 0 0 0 0 0 0 0 0 0 0 0 0 0 0 0 0 0 0 0 0 0
1 0 0 0 0 0 0 0 0 0 0 0 0 0 0 0 0 0 0 0 0 0 0 0 0 0 0 0 0 0 0 0 0 0 0 0 0 0 0 0 0 0 0
0 0 0 0 0 0 0 0 0 0 0 0 0 0 0 0 0 0 0 0 0 0 0 0 0 0 0 0 0 0 0 0 0 0 0 0 0 0 0 0 0 0 0
0 0 0 0 0 0 0 0 0 0 0 0 0 0 0 0 0 0 0 0 0 0 0 0 0 0 0 0 0 0 0 0 0 0 0 0 0 0 0 0 0 0 0
0 0 0 0 0 0 0 0 0 0 0 0 0 0 0 0 0 0 0 0 0 0 0 0 0 0 0 0 0 0 0 0 0 0 0 0 0 0 0 0 0 0 0
0 0 0 0 0 0 0 0 0 0 0 0 0 0 0 0 0 0 0 0 0 0 0 0 0 0 0 0 0 0 0 0 0 0 0 0 0 0 0 0 0 0 0
0 0 0 0 0 0 0 0 0 0 0 0 0 0 0 0 0 0 0 0 0 0 0 0 0 0 0 0 0 0 0 0 0 0 0 0 0 0 0 0 0 0 0
0 0 0 0 0 0 0 0 0 0 0 0 0 0 0 0 0 0 0 0 0 0 0 0 0 0 0 0 0 0 0 0 0 0 0 0 0 0 0 0 0 0 0
0 0 0 0 0 0 0 0 0 0 0 0 0 0 0 0 0 0 0 0 0 0 0 0 0 0 0 0 0 0 0 0 0 0 0 0 0 0 0 0 0 0 0
0 0 0 0 1 1 1 0 0 0 0 0 0 0 0 0 0 0 0 0 0 0 0 0 0 0 0 0 0 0 0 0 0 0 0 0 0 0 0 0 0 0 0
0 0 0 0 0 1 1 0 0 0 0 0 0 0 0 0 0 0 0 0 0 0 0 0 0 0 0 0 0 0 0 0 0 0 0 0 0 0 0 0 0 0 0
0 0 0 0 0 0 0 0 0 0 0 0 0 0 0 0 0 0 0 0 0 0 0 0 0 0 0 0 0 0 0 0 0 0 0 0 0 0 0 0 0 0 0
0 0 0 0 0 0 0 0 0 0 0 0 0 0 0 0 0 0 0 0 0 0 0 0 0 0 0 0 0 0 0 0 0 0 0 0 0 0 0 0 0 0 0
0 0 0 0 0 0 0 0 0 0 0 0 0 0 0 0 0 0 0 0 0 0 0 0 0 0 0 0 0 0 0 0 0 0 0 0 0 0 0 0 0 0 0
0 0 0 0 0 0 0 0 0 0 0 0 0 0 0 0 0 0 0 0 0 0 0 0 0 0 0 0 0 0 0 0 0 0 0 0 0 0 0 0 0 0 0
0 0 0 0 0 0 0 0 0 0 0 0 0 0 0 0 0 0 0 0 0 0 0 0 0 0 0 0 0 0 0 0 0 0 0 0 0 0 0 0 0 0 0
0 0 0 0 0 0 0 0 0 0 0 0 0 0 0 0 0 0 0 0 0 0 0 0 0 0 0 0 0 0 0 0 0 0 0 0 0 0 0 0 0 0 0
0 0 0 0 0 0 0 0 0 0 0 0 0 0 0 0 0 0 0 0 0 0 0 0 0 0 0 0 0 0 0 0 0 0 0 0 0 0 0 0 0 0 0
0 0 0 0 0 0 0 0 0 0 0 0 0 0 0 0 0 0 0 0 0 0 0 0 0 0 0 0 0 0 0 0 0 0 0 0 0 0 0 0 0 0 0
0 0 0 0 0 0 0 0 0 0 0 0 0 0 0 0 0 0 0 0 0 0 0 0 0 0 0 0 0 0 0 0 0 0 0 0 0 0 0 0 0 0 0
Wind_Speed
3 3 4 5 6 5 5 5 5 4 4 3 2 2 2 2 3 3 4 4 4 4 4 4 4 4 4 4 4 3 5 4 3 4 4 5 6 7 6 5 6 7 7
4 4 4 4 5 5 5 5 5 4 3 2 2 2 2 1 2 2 4 5 5 4 4 4 4 4 4 5 4 3 3 3 4 2 3 3 5 5 6 6 6 7 6
8 7 6 5 5 5 6 6 5 4 4 4 3 3 3 3 3 4 3 4 4 5 4 5 4 4 4 4 4 3 4 3 3 3 3 3 2 1 4 5 5 6 6
7 7 7 6 6 6 5 5 5 4 4 4 4 4 3 2 1 1 2 3 4 4 4 4 5 4 4 4 4 3 3 3 2 2 3 2 3 3 1 3 4 6 7
9 8 8 8 6 6 5 5 5 4 4 4 5 5 3 2 1 2 3 4 4 4 4 4 4 4 4 4 4 4 4 3 2 2 2 3 3 3 3 2 3 4 4
8 8 7 6 5 5 5 5 6 4 4 4 4 5 5 4 3 2 2 2 2 3 4 4 4 4 4 4 4 4 5 4 4 3 2 2 2 2 3 3 1 2 3
9 9 9 8 7 7 6 6 6 5 4 5 4 4 5 5 4 3 2 1 1 2 3 3 3 3 3 4 4 5 5 4 5 4 3 2 2 2 2 3 2 2 2
9 10 10 10 9 9 8 7 7 6 5 5 4 4 4 3 2 3 2 2 1 1 1 3 3 3 4 4 4 4 4 4 5 5 4 3 2 2 2 3 3 2 3
10 10 10 9 9 9 9 9 8 6 6 5 5 4 4 4 3 3 2 2 1 1 2 3 3 4 4 4 4 4 4 4 4 4 4 3 2 2 2 2 2 4 2
9 9 9 9 8 8 7 7 7 7 6 6 5 4 4 4 4 3 3 2 2 2 3 3 3 3 4 4 4 4 3 5 4 3 4 4 2 3 3 2 2 2 3
11 10 9 9 8 7 7 7 7 6 6 6 5 5 4 4 4 4 3 3 2 3 3 3 3 3 3 3 4 4 4 5 4 4 5 4 3 3 3 3 3 3 3
9 9 8 8 7 8 8 8 7 7 6 6 5 5 5 5 4 4 3 3 3 3 3 3 3 3 3 3 3 3 3 4 4 3 4 3 3 4 3 3 3 2 2
7 7 7 8 9 8 8 8 8 7 6 6 6 6 5 5 5 4 4 4 4 3 3 3 3 3 3 3 3 3 3 3 3 2 3 2 3 3 3 3 3 2 3
8 8 8 8 9 9 9 8 8 7 7 7 7 7 6 6 6 5 4 4 4 4 4 3 3 3 2 3 3 3 3 3 2 2 2 2 3 3 3 3 3 3 3
8 9 9 9 9 8 8 8 7 7 8 8 7 7 6 5 5 5 5 4 4 4 4 4 3 2 2 3 4 3 3 3 3 2 1 1 3 3 3 3 2 3 3
9 9 9 10 10 11 10 9 8 8 8 8 8 6 6 6 6 6 5 5 4 4 4 3 3 2 2 4 6 5 4 3 3 2 1 1 1 3 4 4 4 4 3
8 9 10 11 11 11 11 11 10 8 9 8 7 7 7 7 6 6 6 5 5 4 4 3 3 2 2 5 6 7 4 3 2 2 1 1 1 2 2 3 4 2 2
7 8 8 8 8 8 9 8 8 9 9 8 8 8 8 7 6 6 6 5 4 4 4 4 4 3 3 5 6 7 4 3 2 2 2 2 1 1 3 2 2 1 1
7 7 7 7 7 9 9 9 9 9 9 9 9 9 9 8 8 8 7 5 5 4 4 4 4 4 3 5 7 7 3 2 1 1 2 2 2 3 4 3 2 0 2
3 4 4 5 7 7 9 10 9 9 10 11 10 9 9 10 10 9 7 5 5 5 5 4 4 4 4 5 7 8 3 2 1 1 2 4 4 4 4 3 3 2 3
1 3 4 5 6 7 9 9 9 11 10 8 8 8 9 9 8 7 6 5 5 5 4 4 3 3 4 6 7 8 4 4 3 2 2 3 5 5 5 4 3 4 3
2 3 4 3 4 6 9 9 10 9 7 7 8 8 8 7 7 7 6 6 6 6 4 3 3 2 3 4 6 8 7 6 4 4 3 4 6 5 5 4 4 5 2
2 2 4 4 3 5 7 8 7 6 7 8 8 7 7 6 7 8 8 6 5 5 5 4 4 3 3 3 7 7 8 8 4 4 5 6 6 5 4 5 5 3 2
1 2 3 4 3 3 5 5 5 6 7 7 7 6 7 6 6 5 6 6 7 6 6 5 5 4 3 4 4 4 4 6 5 3 4 5 5 3 3 3 3 2 3
1 2 3 3 3 3 3 3 4 7 7 6 6 6 6 6 6 6 6 8 8 9 9 8 7 6 6 8 10 6 5 5 5 3 1 1 1 2 2 2 2 2 2
2 2 2 2 1 2 2 2 4 6 7 5 5 5 5 5 5 5 3 5 5 7 9 8 8 7 8 8 10 11 10 9 8 5 3 3 4 5 5 4 4 3 4
Wind_Direction
188 153 151 135 126 125 127 131 129 128 119 99 89 75 45 18 22 25 28 34 43 48 54 52 42 43 58 58 62 77 70 51 38 74 60 42 43 47 37 34 36 33 32
160 163 153 144 146 145 144 143 144 143 136 122 119 113 104 57 34 13 26 28 38 43 59 58 52 44 58 55 51 67 80 46 28 79 82 48 26 23 27 30 36 29 27
179 177 169 168 154 159 164 161 157 147 138 127 106 82 56 37 26 18 14 11 30 46 55 58 58 49 57 62 53 60 87 87 39 46 109 117 121 28 11 26 32 29 30
184 180 175 173 174 176 165 155 153 146 144 139 133 128 118 106 48 14 15 20 31 43 49 56 57 55 54 57 52 59 75 100 85 47 45 84 132 126 63 7 16 29 32
187 185 183 180 177 167 160 154 146 145 147 143 139 128 117 118 86 53 48 36 29 34 41 54 59 57 56 58 58 58 63 73 92 88 76 67 61 70 111 68 0 15 18
187 186 179 165 163 158 154 149 148 151 146 141 141 141 138 135 115 83 62 36 27 26 31 50 57 61 61 59 61 64 65 66 77 76 73 92 96 92 103 109 51 20 351
180 177 171 172 171 169 167 159 157 159 156 151 153 157 153 149 146 141 125 95 48 32 20 42 54 58 64 64 64 65 60 60 72 74 72 71 79 113 116 117 111 53 357
181 182 182 180 177 176 174 168 168 168 166 164 164 159 153 146 147 149 143 137 122 92 54 62 61 61 67 70 66 65 58 60 66 69 72 69 56 77 115 132 131 86 23
184 184 182 182 180 180 182 179 173 170 173 171 159 155 155 152 153 149 137 133 129 109 86 79 71 65 68 70 74 68 60 63 60 64 69 67 53 56 65 97 123 132 110
184 183 182 184 184 182 179 175 172 174 173 168 167 164 162 159 153 143 144 143 134 106 102 91 86 78 71 73 77 71 65 70 56 59 67 58 46 53 55 71 76 99 132
188 186 185 183 176 169 170 174 173 169 170 170 165 155 158 154 149 150 156 152 138 129 123 117 108 100 90 87 88 83 78 77 63 56 68 60 52 59 51 63 72 72 100
187 184 179 172 172 175 176 178 176 177 178 169 161 161 156 151 154 160 161 151 143 135 132 123 113 111 106 102 105 103 93 93 86 74 74 65 67 60 53 63 69 73 84
181 173 172 178 183 183 181 181 182 182 172 161 159 157 159 161 166 166 160 151 142 132 125 121 124 124 122 116 113 113 106 104 103 98 95 86 85 73 65 70 71 66 69
183 179 182 187 187 186 185 184 186 178 167 164 166 169 174 173 169 162 157 155 147 142 139 132 133 134 130 126 124 118 111 101 90 90 102 109 113 120 111 92 90 88 76
189 190 190 191 187 185 185 184 183 176 169 167 175 182 174 163 157 156 156 151 148 150 144 134 129 130 138 151 145 137 128 117 97 75 77 119 134 137 135 125 131 116 102
198 198 193 190 190 190 188 184 183 178 169 173 182 174 159 158 162 161 153 148 146 141 137 146 148 153 167 162 157 147 137 133 128 119 72 68 95 106 108 117 132 140 139
202 197 196 197 196 193 187 186 183 169 171 177 174 169 165 166 169 162 153 157 159 150 149 156 155 169 195 169 158 156 139 141 151 155 149 109 87 86 93 90 82 81 117
203 202 198 198 195 185 181 176 164 167 175 177 175 172 169 169 162 158 163 164 157 161 164 168 170 172 203 179 162 155 137 138 158 175 175 164 176 164 139 121 87 41 350
205 203 198 190 181 179 174 165 167 170 175 182 182 179 173 167 165 170 172 167 161 167 170 170 169 174 199 185 168 153 137 144 178 200 189 182 192 205 161 138 139 350 311
198 189 175 164 171 175 163 163 173 176 188 191 187 178 173 173 177 179 172 163 163 170 165 166 177 181 197 201 183 164 149 160 192 227 233 220 212 212 190 166 169 210 258
143 143 146 162 177 166 161 170 177 194 197 184 172 170 175 179 178 170 165 158 156 152 161 171 186 195 206 210 196 181 169 179 187 206 229 241 231 222 216 200 197 221 225
98 130 141 154 158 161 165 176 194 198 172 161 165 172 175 176 170 163 164 161 157 159 169 177 200 220 222 215 212 202 196 186 184 209 221 230 233 228 224 220 226 230 225
111 135 143 140 142 162 171 187 199 167 157 161 169 172 170 172 167 169 168 161 166 171 181 186 204 221 220 228 225 217 211 204 198 215 220 227 234 229 234 237 231 222 202
109 126 127 132 152 174 179 187 173 158 158 167 171 167 167 171 170 173 173 174 180 185 189 194 207 214 214 217 217 216 217 215 216 221 230 232 233 226 235 246 244 222 208
80 117 139 157 176 172 176 171 152 152 161 169 170 171 175 175 177 184 191 192 199 193 191 200 199 196 214 221 207 196 205 205 207 181 175 201 221 236 246 252 249 239 232
92 101 112 129 152 146 156 161 156 156 158 165 174 177 176 177 178 181 201 225 216 213 210 205 195 211 217 210 202 206 210 206 191 167 194 215 220 227 232 236 243 238 236